Location: Colebrook
(42.0017°N, 73.0973°W)
Time: 15:07:02
(UTC-05:00)

Amateur Radio Satellites - All Passes

Search period start: 18 January 2017 14:37
Search period end: 19 January 2017 14:37
Location: Colebrook, 42.0017°N, 73.0973°W

Satellite Date Start Highest point End Downlink Frequencies (MHz)
Time Altitude Azimuth
Cosmos 2491 18 Jan 14:44:08 14:51:35 33° 276° (W) 14:59:05 435.465 / 435.565
BEESAT 18 Jan 14:46:17 14:51:06 85° 101° (ESE) 14:55:54 436.000
SWISSCUBE 18 Jan 14:47:41 14:52:30 83° 285° (WNW) 14:57:19 437.505
YUBILEINY 18 Jan 14:50:01 14:58:46 69° 280° (W) 15:07:37 435.215
DANDE 18 Jan 14:56:14 15:03:50 73° 79° (E) 15:12:13 436.750
MOZHAYETS 4 18 Jan 15:02:24 15:06:46 39° 98° (E) 15:11:06
AO-7 18 Jan 15:03:41 15:11:53 60° 257° (WSW) 15:20:10 29.400- 29.500
AO-85 18 Jan 15:21:21 15:25:21 28° 312° (NW) 15:29:08 145.980
Cosmos 2504 18 Jan 15:35:02 15:43:42 63° 281° (WNW) 15:51:53 435.465 / 435.565
CUBESAT XI-V 18 Jan 15:43:01 15:45:58 16° 91° (E) 15:48:54 437.345
O/OREOS (USA 219) 18 Jan 15:44:18 15:48:29 36° 61° (ENE) 15:52:39 437.305
ITUPSAT 1 18 Jan 15:48:27 15:52:23 26° 294° (WNW) 15:56:18 437.325
KKS-1 18 Jan 15:58:40 16:02:57 47° 100° (E) 16:07:12 437.445
Cubesat XI-IV 18 Jan 15:59:16 16:02:37 17° 60° (ENE) 16:05:57 437.490
M-CUBED/EXP-1 PRIME 18 Jan 16:02:38 16:06:00 58° 105° (ESE) 16:09:13 437.505
BRITE-PL 18 Jan 16:06:13 16:11:54 88° 256° (WSW) 16:17:36 437.365/2234.400
HORYU 2 18 Jan 16:06:54 16:11:06 45° 71° (ENE) 16:15:19 437.375
CUSAT 1 18 Jan 16:14:50 16:18:48 15° 282° (WNW) 16:22:40 437.405
NOAA 15 18 Jan 16:15:15 16:19:29 25° 64° (ENE) 16:23:44 137.62
BEESAT 3 18 Jan 16:17:14 16:20:54 42° 117° (ESE) 16:24:38 437.485
GOMX 1 18 Jan 16:22:11 16:27:30 58° 73° (ENE) 16:32:38 467.674
BEESAT 18 Jan 16:26:27 16:28:10 12° 301° (WNW) 16:29:55 436.000
SO-50 18 Jan 16:28:06 16:32:28 46° 51° (NE) 16:36:47 436.795
LilacSat-2 18 Jan 16:28:07 16:31:05 23° 69° (ENE) 16:34:06 437.200
SWISSCUBE 18 Jan 16:28:45 16:29:29 10° 302° (WNW) 16:30:14 437.505
DANDE 18 Jan 16:40:01 16:46:03 26° 274° (W) 16:52:30 436.750
MOZHAYETS 4 18 Jan 16:40:06 16:43:40 22° 294° (WNW) 16:47:14
AUBIESAT-1 18 Jan 16:41:19 16:44:38 51° 291° (WNW) 16:47:49 437.475
YUBILEINY 18 Jan 16:53:07 16:57:28 14° 304° (WNW) 17:01:51 435.215
CUTE-I 18 Jan 16:54:31 16:59:39 52° 71° (ENE) 17:04:47 437.470
BEESAT 2 18 Jan 16:56:58 17:00:46 49° 118° (ESE) 17:04:38 435.950
STARS 18 Jan 16:58:03 17:02:26 86° 285° (WNW) 17:06:48 437.465
HO-68 18 Jan 17:05:52 17:11:03 22° 56° (NE) 17:16:16 435.675
DOVE 4 18 Jan 17:12:52 17:17:55 72° 76° (ENE) 17:22:43 437.250
CUBESAT XI-V 18 Jan 17:19:05 17:23:39 51° 288° (WNW) 17:28:10 437.345
CINEMA 3 18 Jan 17:22:10 17:25:26 20° 67° (ENE) 17:28:37 145.822/145.860
NOAA 18 18 Jan 17:23:19 17:28:40 55° 70° (ENE) 17:34:01 137.9125
O/OREOS (USA 219) 18 Jan 17:24:11 17:27:39 22° 258° (WSW) 17:31:06 437.305
Cosmos 2504 18 Jan 17:35:28 17:38:46 12° 302° (WNW) 17:42:01 435.465 / 435.565
KKS-1 18 Jan 17:36:13 17:39:08 18° 296° (WNW) 17:42:03 437.445
Cubesat XI-IV 18 Jan 17:36:49 17:42:06 68° 258° (WSW) 17:47:26 437.490
CUTE 1.7 + AOD 2 18 Jan 17:43:17 17:46:14 19° 66° (ENE) 17:49:13 437.475
HORYU 2 18 Jan 17:45:03 17:47:53 17° 268° (W) 17:50:44 437.375
BRITE-PL 18 Jan 17:48:46 17:51:02 12° 273° (W) 17:53:19 437.365/2234.400
GONETS M04 18 Jan 17:48:49 17:50:28 11° 71° (ENE) 17:52:06
NOAA 15 18 Jan 17:53:57 17:58:59 44° 261° (W) 18:04:04 137.62
BEESAT 3 18 Jan 17:55:45 17:58:42 20° 316° (NW) 18:01:40 437.485
GOMX 1 18 Jan 18:02:04 18:05:50 19° 268° (W) 18:09:33 467.674
LilacSat-2 18 Jan 18:02:11 18:05:17 24° 265° (W) 18:08:25 437.200
Cosmos 2499 18 Jan 18:04:50 18:10:16 19° 80° (E) 18:15:30 435.465 / 435.565
SO-50 18 Jan 18:09:20 18:12:36 20° 249° (WSW) 18:15:48 436.795
CANX-2 18 Jan 18:10:48 18:14:48 41° 72° (ENE) 18:18:50 2200.000
STRAND 1 18 Jan 18:12:33 18:16:02 18° 92° (E) 18:19:31 437.568
SEEDS 18 Jan 18:26:34 18:30:25 36° 71° (ENE) 18:34:18 437.485
CUBEBUG 2 18 Jan 18:31:04 18:34:29 25° 69° (ENE) 18:37:52 437.445
BEESAT 2 18 Jan 18:36:00 18:38:49 18° 317° (NW) 18:41:41 435.950
CUTE-I 18 Jan 18:36:06 18:39:58 20° 267° (W) 18:43:52 437.470
COMPASS 1 18 Jan 18:36:18 18:39:58 30° 70° (ENE) 18:43:39 437.405
AIST 2 18 Jan 18:38:20 18:39:50 12° 108° (ESE) 18:41:20 435.215
AAUSAT CUBESAT 2 18 Jan 18:49:43 18:53:26 32° 70° (ENE) 18:57:11 437.432
HO-68 18 Jan 18:50:47 18:57:59 80° 255° (WSW) 19:05:15 435.675
DOVE 4 18 Jan 18:53:44 18:55:59 13° 270° (W) 18:58:12 437.250
CINEMA 3 18 Jan 18:58:12 19:02:21 37° 262° (W) 19:06:23 145.822/145.860
UWE-3 18 Jan 19:03:32 19:07:18 35° 71° (ENE) 19:11:04 435.000/436.395/437.385
NOAA 18 18 Jan 19:05:37 19:09:38 20° 267° (W) 19:13:40 137.9125
FUNcube-1 18 Jan 19:05:58 19:09:03 21° 67° (ENE) 19:12:09 145.935
CUTE 1.7 + AOD 2 18 Jan 19:17:48 19:21:46 39° 262° (W) 19:25:48 437.475
ZACube-1 18 Jan 19:26:58 19:30:47 37° 71° (ENE) 19:34:37 437.345
GONETS M04 18 Jan 19:36:49 19:45:21 64° 92° (E) 19:53:57
CANX-2 18 Jan 19:48:04 19:50:50 17° 268° (W) 19:53:38 2200.000
STRAND 1 18 Jan 19:50:32 19:55:33 55° 288° (WNW) 20:00:33 437.568
Cosmos 2499 18 Jan 19:53:57 20:02:29 84° 276° (W) 20:10:27 435.465 / 435.565
HUMSAT D 18 Jan 19:58:07 20:00:12 14° 63° (ENE) 20:02:18 437.325/437.525
SEEDS 18 Jan 20:03:09 20:06:13 19° 267° (W) 20:09:18 437.485
Oscar 11 18 Jan 20:06:38 20:10:57 89° 244° (WSW) 20:15:18 145.826/435.025
CUBEBUG 2 18 Jan 20:07:27 20:11:01 27° 264° (W) 20:14:35 437.445
COMPASS 1 18 Jan 20:12:12 20:15:31 23° 266° (W) 20:18:52 437.405
AIST 2 18 Jan 20:13:37 20:17:42 67° 304° (NW) 20:21:53 435.215
PRISM 18 Jan 20:17:19 20:19:48 15° 92° (E) 20:22:17 437.425
DELFI C3 18 Jan 20:24:41 20:28:32 47° 73° (ENE) 20:32:25 145.870
AAUSAT CUBESAT 2 18 Jan 20:25:47 20:28:57 21° 267° (W) 20:32:09 437.432
UWE-3 18 Jan 20:40:55 20:43:52 19° 267° (W) 20:46:50 435.000/436.395/437.385
FUNcube-1 18 Jan 20:41:23 20:45:05 32° 263° (W) 20:48:51 145.935
HO-68 18 Jan 20:43:33 20:46:46 13° 273° (W) 20:49:59 435.675
ZACube-1 18 Jan 21:04:27 21:07:13 17° 268° (W) 21:10:01 437.345
RS-15 18 Jan 21:13:17 21:15:39 11° 91° (E) 21:18:01 29.354- 29.394
CUBEBUG 1 18 Jan 21:29:25 21:31:08 12° 61° (ENE) 21:32:52 437.445
HUMSAT D 18 Jan 21:31:21 21:35:20 53° 260° (W) 21:39:24 437.325/437.525
GONETS M04 18 Jan 21:35:29 21:42:47 29° 293° (WNW) 21:50:10
UNISAT 6 18 Jan 21:38:28 21:42:39 40° 98° (E) 21:46:53 437.425
AISAT 18 Jan 21:41:15 21:42:21 11° 60° (ENE) 21:43:29 437.250
JAS-2 18 Jan 21:45:47 21:51:30 25° 92° (E) 21:57:32 435.910
PRISM 18 Jan 21:51:24 21:55:18 42° 289° (WNW) 21:59:10 437.425
ESTCUBE 1 18 Jan 21:51:34 21:55:38 34° 69° (ENE) 21:59:45 437.505/2401.250
Cosmos 2499 18 Jan 21:51:39 21:56:44 17° 297° (WNW) 22:01:39 435.465 / 435.565
TIGRISAT 18 Jan 21:52:21 21:56:40 52° 100° (E) 22:01:03 435.000
ISS 18 Jan 21:53:01 21:55:27 20° 134° (SE) 21:57:53 145.825
AIST 2 18 Jan 21:56:00 21:57:01 11° 325° (NW) 21:58:02 435.215
DELFI C3 18 Jan 22:01:36 22:03:36 13° 269° (W) 22:05:37 145.870
BY70-1 18 Jan 22:06:29 22:09:23 75° 256° (WSW) 22:12:36 436.1900
ANTELSAT 18 Jan 22:07:00 22:11:27 81° 103° (ESE) 22:15:58 437.575/2403.000
AO-85 18 Jan 22:11:35 22:15:07 31° 49° (NE) 22:18:36 145.980
VELOX 1 18 Jan 22:12:11 22:15:33 22° 66° (ENE) 22:18:55 145.980
POPSAT HIP 1 18 Jan 22:23:50 22:24:43 11° 90° (E) 22:25:36 437.405
DUCHIFAT 1 18 Jan 22:36:10 22:38:06 13° 91° (E) 22:40:02 145.980
NANOSAT C BR1 18 Jan 22:40:06 22:42:42 16° 92° (E) 22:45:18 145.865
DX 1 18 Jan 22:50:24 22:54:02 26° 67° (ENE) 22:57:40 434.975-435.025
UKube-1 18 Jan 22:53:49 22:57:04 21° 66° (ENE) 23:00:19 .
SPROUT 18 Jan 22:54:35 22:58:35 41° 71° (ENE) 23:02:35 437.525
CUBEBUG 1 18 Jan 23:02:25 23:06:50 72° 259° (WSW) 23:11:14 437.445
YUBILEINY 18 Jan 23:06:09 23:09:36 13° 55° (NE) 23:13:02 435.215
50 SAT 18 Jan 23:10:41 23:14:12 65° 76° (ENE) 23:17:47 437.505
AISAT 18 Jan 23:13:41 23:18:09 82° 257° (WSW) 23:22:37 437.250
RS-15 18 Jan 23:13:44 23:25:08 58° 112° (ESE) 23:37:01 29.354- 29.394
UNISAT 6 18 Jan 23:15:52 23:19:06 20° 294° (WNW) 23:22:23 437.425
BUGSAT 1 18 Jan 23:18:35 23:20:30 13° 91° (E) 23:22:24 437.445
ISS 18 Jan 23:28:32 23:31:42 50° 330° (NNW) 23:34:53 145.825
ESTCUBE 1 18 Jan 23:28:51 23:32:29 24° 266° (W) 23:36:10 437.505/2401.250
PCSat 18 Jan 23:28:53 23:31:30 14° 103° (ESE) 23:34:07 145.827
JAS-2 18 Jan 23:29:51 23:36:51 69° 287° (WNW) 23:44:30 435.910
QB50P1 18 Jan 23:29:58 23:34:10 63° 101° (E) 23:38:20 145.935-145.965
TIGRISAT 18 Jan 23:30:17 23:32:57 16° 296° (WNW) 23:35:39 435.000
POLYITAN 1 18 Jan 23:33:29 23:37:42 70° 101° (ESE) 23:41:55 437.675
QB50P2 18 Jan 23:34:39 23:38:54 78° 103° (ESE) 23:43:08 145.880/145.840
ANTELSAT 18 Jan 23:46:24 23:47:32 11° 299° (WNW) 23:48:40 437.575/2403.000
VELOX 1 18 Jan 23:47:38 23:51:46 37° 262° (W) 23:55:55 145.980
AO-85 18 Jan 23:52:15 23:55:21 23° 247° (WSW) 23:58:27 145.980
POPSAT HIP 1 18 Jan 23:56:43 00:00:55 66° 285° (WNW) 00:05:06 437.405
Cosmos 2491 19 Jan 00:00:14 00:01:32 10° 71° (ENE) 00:02:50 435.465 / 435.565
DUCHIFAT 1 19 Jan 00:10:00 00:14:05 53° 287° (WNW) 00:18:11 145.980
AIST 1 19 Jan 00:12:15 00:15:43 23° 73° (ENE) 00:19:09
NANOSAT C BR1 19 Jan 00:14:38 00:18:37 43° 288° (WNW) 00:22:37 145.865
Oscar 19 19 Jan 00:16:26 00:19:51 18° 91° (E) 00:23:15 437.125/150
BEESAT 19 Jan 00:18:33 00:20:29 12° 59° (ENE) 00:22:25 436.000
SWISSCUBE 19 Jan 00:19:22 00:21:51 14° 61° (ENE) 00:24:19 437.505
DX 1 19 Jan 00:26:17 00:30:07 29° 264° (W) 00:33:56 434.975-435.025
UKube-1 19 Jan 00:28:52 00:32:51 36° 262° (W) 00:36:52 .
TISAT 1 19 Jan 00:28:58 00:33:06 67° 74° (ENE) 00:37:15 437.305
SPROUT 19 Jan 00:31:50 00:34:40 17° 267° (W) 00:37:31 437.525
BEESAT 3 19 Jan 00:33:42 00:37:16 30° 49° (NE) 00:40:48 437.485
BUGSAT 1 19 Jan 00:52:15 00:56:08 49° 287° (WNW) 01:00:02 437.445
YUBILEINY 19 Jan 00:59:45 01:08:31 63° 78° (ENE) 01:17:10 435.215
ISS 19 Jan 01:06:31 01:08:46 17° 349° (N) 01:11:01 145.825
QB50P1 19 Jan 01:07:37 01:09:24 12° 298° (WNW) 01:11:10 145.935-145.965
PCSat 19 Jan 01:08:44 01:14:08 81° 299° (WNW) 01:19:36 145.827
POLYITAN 1 19 Jan 01:11:32 01:12:55 11° 298° (WNW) 01:14:20 437.675
QB50P2 19 Jan 01:13:19 01:14:04 10° 299° (WNW) 01:14:48 145.880/145.840
BEESAT 2 19 Jan 01:14:20 01:18:04 34° 50° (NE) 01:21:47 435.950
ITUPSAT 1 19 Jan 01:17:15 01:21:44 44° 70° (ENE) 01:26:16 437.325
JAS-2 19 Jan 01:17:22 01:20:49 14° 305° (NW) 01:24:24 435.910
RS-15 19 Jan 01:26:26 01:37:58 50° 317° (NW) 01:49:57 29.354- 29.394
Cosmos 2504 19 Jan 01:27:52 01:35:03 48° 75° (ENE) 01:41:54 435.465 / 435.565
Cosmos 2491 19 Jan 01:47:55 01:56:26 63° 92° (E) 02:05:00 435.465 / 435.565
AIST 1 19 Jan 01:49:39 01:53:17 28° 270° (W) 01:56:53
BEESAT 19 Jan 01:52:50 01:57:35 81° 259° (W) 02:02:22 436.000
CUSAT 1 19 Jan 01:53:04 01:55:58 15° 78° (ENE) 01:59:13 437.405
AUBIESAT-1 19 Jan 01:53:33 01:56:28 18° 62° (ENE) 01:59:16 437.475
Gurwin Techsat 1B 19 Jan 01:54:02 01:59:23 77° 103° (ESE) 02:04:42 435.225
SWISSCUBE 19 Jan 01:54:18 01:59:02 70° 258° (WSW) 02:03:48 437.505
Oscar 19 19 Jan 01:54:27 01:59:32 57° 289° (WNW) 02:04:34 437.125/150
MOZHAYETS 4 19 Jan 02:04:30 02:08:43 38° 71° (ENE) 02:12:59
TISAT 1 19 Jan 02:08:39 02:09:10 10° 270° (W) 02:09:41 437.305
BEESAT 3 19 Jan 02:11:25 02:14:47 26° 246° (WSW) 02:18:06 437.485
ITAMSAT 1 19 Jan 02:33:30 02:38:18 36° 98° (E) 02:43:04 435.822/435.867
ISS 19 Jan 02:43:58 02:46:11 17° 10° (N) 02:48:23 145.825
PHONESAT 2.4 19 Jan 02:45:14 02:47:14 25° 162° (SSE) 02:49:14 2401.200-2431.200
CUBESAT XI-V 19 Jan 02:46:47 02:49:55 18° 64° (ENE) 02:53:05 437.345
M-CUBED/EXP-1 PRIME 19 Jan 02:47:54 02:52:21 86° 75° (ENE) 02:56:33 437.505
BEESAT 2 19 Jan 02:52:29 02:55:41 23° 247° (WSW) 02:58:51 435.950
PCSat 19 Jan 02:55:10 02:58:25 16° 320° (NW) 03:01:41 145.827
ITUPSAT 1 19 Jan 02:56:18 02:59:46 20° 267° (W) 03:03:16 437.325
KKS-1 19 Jan 02:56:49 03:01:03 45° 71° (ENE) 03:05:19 437.445
AIST 2 19 Jan 02:57:29 02:59:36 13° 38° (NE) 03:01:42 435.215
YUBILEINY 19 Jan 02:57:30 03:04:39 29° 278° (W) 03:11:45 435.215
AO-7 19 Jan 03:04:45 03:12:46 47° 101° (E) 03:20:41 29.400- 29.500
Cosmos 2504 19 Jan 03:21:49 03:28:03 30° 276° (W) 03:34:05 435.465 / 435.565
AUBIESAT-1 19 Jan 03:26:27 03:30:36 44° 255° (WSW) 03:34:32 437.475
CUSAT 1 19 Jan 03:31:46 03:36:39 71° 282° (WNW) 03:43:08 437.405
Gurwin Techsat 1B 19 Jan 03:35:40 03:38:40 15° 301° (WNW) 03:41:39 435.225
MOZHAYETS 4 19 Jan 03:42:33 03:46:00 21° 267° (W) 03:49:29
RS-15 19 Jan 03:44:54 03:54:32 25° 349° (N) 04:04:16 29.354- 29.394
Cosmos 2491 19 Jan 03:46:33 03:53:51 29° 292° (WNW) 04:01:14 435.465 / 435.565
STARS 19 Jan 03:54:36 03:59:00 87° 74° (ENE) 04:03:24 437.465
DANDE 19 Jan 04:06:24 04:10:00 67° 96° (E) 04:14:51 436.750
BRITE-PL 19 Jan 04:12:02 04:16:18 28° 93° (E) 04:20:15 437.365/2234.400
ITAMSAT 1 19 Jan 04:13:11 04:17:38 29° 294° (WNW) 04:22:04 435.822/435.867
PHONESAT 2.4 19 Jan 04:18:54 04:21:10 58° 178° (S) 04:23:27 2401.200-2431.200
ISS 19 Jan 04:20:05 04:23:15 47° 29° (NNE) 04:26:24 145.825
CUBESAT XI-V 19 Jan 04:22:19 04:26:53 51° 261° (W) 04:31:30 437.345
GOMX 1 19 Jan 04:25:53 04:28:06 14° 89° (E) 04:30:17 467.674
AIST 2 19 Jan 04:34:26 04:38:42 88° 54° (NE) 04:42:57 435.215
KKS-1 19 Jan 04:34:56 04:37:50 17° 267° (W) 04:40:45 437.445
AO-7 19 Jan 04:57:44 05:05:24 42° 300° (WNW) 05:13:02 29.400- 29.500
CUTE-I 19 Jan 05:11:54 05:15:44 20° 92° (E) 05:19:33 437.470
DOVE 4 19 Jan 05:12:50 05:15:25 16° 91° (E) 05:17:57 437.250
CUSAT 1 19 Jan 05:18:40 05:20:18 11° 307° (NW) 05:22:01 437.405
STRAND 1 19 Jan 05:28:36 05:32:52 28° 66° (ENE) 05:37:08 437.568
HORYU 2 19 Jan 05:33:22 05:37:50 87° 104° (ESE) 05:42:18 437.375
LilacSat-2 19 Jan 05:34:19 05:37:49 32° 97° (E) 05:41:18 437.200
Cosmos 2499 19 Jan 05:45:37 05:51:58 32° 71° (ENE) 05:58:09 435.465 / 435.565
NOAA 18 19 Jan 05:45:40 05:49:48 22° 94° (E) 05:53:54 137.9125
GONETS M04 19 Jan 05:46:49 05:54:32 32° 69° (ENE) 06:02:13
BRITE-PL 19 Jan 05:50:25 05:54:45 30° 293° (WNW) 05:58:47 437.365/2234.400
DANDE 19 Jan 05:52:47 05:53:50 11° 304° (NW) 05:54:57 436.750
PHONESAT 2.4 19 Jan 05:53:00 05:55:09 34° 194° (SSW) 05:57:18 2401.200-2431.200
Cubesat XI-IV 19 Jan 05:53:37 05:58:46 47° 99° (E) 06:03:53 437.490
O/OREOS (USA 219) 19 Jan 05:56:58 06:01:07 38° 106° (ESE) 06:05:16 437.305
ISS 19 Jan 05:57:00 05:59:32 21° 226° (SW) 06:02:04 145.825
RS-15 19 Jan 06:01:55 06:12:31 31° 25° (NNE) 06:22:54 29.354- 29.394
GOMX 1 19 Jan 06:02:15 06:06:38 52° 287° (WNW) 06:10:46 467.674
NOAA 15 19 Jan 06:08:18 06:13:37 67° 102° (ESE) 06:18:53 137.62
HO-68 19 Jan 06:19:30 06:24:25 19° 91° (E) 06:29:19 435.675
SO-50 19 Jan 06:44:46 06:47:05 14° 108° (ESE) 06:49:24 436.795
DOVE 4 19 Jan 06:49:24 06:53:22 41° 288° (WNW) 06:57:15 437.250
CUTE-I 19 Jan 06:50:54 06:56:06 54° 289° (WNW) 07:01:16 437.470
CINEMA 3 19 Jan 06:51:46 06:55:46 44° 99° (E) 06:59:51 145.822/145.860
CUTE 1.7 + AOD 2 19 Jan 07:02:06 07:06:00 32° 97° (E) 07:09:52 437.475
STRAND 1 19 Jan 07:07:12 07:11:52 36° 263° (W) 07:16:35 437.568
PRISM 19 Jan 07:07:44 07:09:43 13° 62° (ENE) 07:11:41 437.425
LilacSat-2 19 Jan 07:09:08 07:11:53 19° 293° (WNW) 07:14:37 437.200
HORYU 2 19 Jan 07:13:04 07:13:41 10° 301° (WNW) 07:14:18 437.375
NOAA 18 19 Jan 07:25:27 07:30:43 51° 291° (WNW) 07:35:58 137.9125
CANX-2 19 Jan 07:30:43 07:35:02 81° 100° (E) 07:39:20 2200.000
Cubesat XI-IV 19 Jan 07:34:20 07:38:32 24° 296° (WNW) 07:42:43 437.490
O/OREOS (USA 219) 19 Jan 07:37:09 07:40:39 22° 304° (WNW) 07:44:09 437.305
Cosmos 2499 19 Jan 07:38:33 07:45:13 44° 271° (W) 07:51:47 435.465 / 435.565
GONETS M04 19 Jan 07:43:13 07:51:48 58° 269° (W) 08:00:23
SEEDS 19 Jan 07:45:01 07:49:17 67° 101° (E) 07:53:30 437.485
NOAA 15 19 Jan 07:49:25 07:52:49 17° 300° (WNW) 07:56:12 137.62
COMPASS 1 19 Jan 07:53:23 07:57:32 53° 100° (E) 08:01:39 437.405
Oscar 11 19 Jan 07:54:31 07:57:19 17° 92° (E) 08:00:06 145.826/435.025
CUBEBUG 2 19 Jan 07:56:31 08:00:45 55° 100° (E) 08:05:06 437.445
HO-68 19 Jan 08:05:39 08:12:51 78° 289° (WNW) 08:19:59 435.675
AAUSAT CUBESAT 2 19 Jan 08:06:14 08:10:22 57° 100° (E) 08:14:28 437.432
PCSat 19 Jan 08:14:03 08:17:29 17° 40° (NE) 08:20:54 145.827
RS-15 19 Jan 08:15:10 08:27:36 74° 54° (NE) 08:39:32 29.354- 29.394
SO-50 19 Jan 08:22:16 08:26:59 72° 304° (NW) 08:31:39 436.795
UWE-3 19 Jan 08:28:01 08:32:23 78° 103° (ESE) 08:36:51 435.000/436.395/437.385
FUNcube-1 19 Jan 08:28:01 08:32:11 42° 98° (E) 08:36:24 145.935
CINEMA 3 19 Jan 08:29:59 08:32:36 16° 295° (WNW) 08:35:14 145.822/145.860
UNISAT 6 19 Jan 08:37:49 08:41:42 35° 70° (ENE) 08:45:35 437.425
CUTE 1.7 + AOD 2 19 Jan 08:38:17 08:41:39 23° 293° (WNW) 08:44:59 437.475
PRISM 19 Jan 08:40:24 08:44:30 59° 259° (W) 08:48:38 437.425
ZACube-1 19 Jan 08:50:06 08:54:30 81° 104° (ESE) 08:58:57 437.345
TIGRISAT 19 Jan 08:51:25 08:55:29 46° 72° (ENE) 08:59:33 435.000
ANTELSAT 19 Jan 09:06:05 09:10:19 72° 75° (ENE) 09:14:34 437.575/2403.000
CANX-2 19 Jan 09:09:40 09:10:13 10° 299° (WNW) 09:10:46 2200.000
HUMSAT D 19 Jan 09:14:27 09:17:54 23° 94° (E) 09:21:20 437.325/437.525
SEEDS 19 Jan 09:22:45 09:24:24 12° 298° (WNW) 09:26:03 437.485
Oscar 11 19 Jan 09:29:30 09:33:40 45° 288° (WNW) 09:37:49 145.826/435.025
DUCHIFAT 1 19 Jan 09:29:39 09:30:43 11° 61° (ENE) 09:31:48 145.980
COMPASS 1 19 Jan 09:30:23 09:32:37 14° 296° (WNW) 09:34:52 437.405
NANOSAT C BR1 19 Jan 09:33:24 09:35:25 13° 63° (ENE) 09:37:27 145.865
CUBEBUG 2 19 Jan 09:34:33 09:36:57 15° 296° (WNW) 09:39:23 437.445
DELFI C3 19 Jan 09:35:59 09:40:00 75° 101° (E) 09:43:58 145.870
AAUSAT CUBESAT 2 19 Jan 09:43:20 09:45:21 13° 297° (WNW) 09:47:21 437.432
JAS-2 19 Jan 09:43:20 09:48:29 55° 71° (ENE) 09:54:09 435.910
HO-68 19 Jan 09:55:20 09:59:26 16° 308° (NW) 10:03:32 435.675
PCSat 19 Jan 09:56:14 10:01:43 86° 63° (ENE) 10:07:08 145.827
FUNcube-1 19 Jan 10:05:03 10:08:07 19° 294° (WNW) 10:11:14 145.935
SO-50 19 Jan 10:05:59 10:08:16 13° 324° (NW) 10:10:31 436.795
UWE-3 19 Jan 10:07:03 10:08:15 11° 298° (WNW) 10:09:27 435.000/436.395/437.385
BUGSAT 1 19 Jan 10:10:12 10:11:01 11° 62° (ENE) 10:11:51 437.445
UNISAT 6 19 Jan 10:15:24 10:18:31 20° 267° (W) 10:21:39 437.425
QB50P1 19 Jan 10:22:29 10:26:30 48° 73° (ENE) 10:30:33 145.935-145.965
POLYITAN 1 19 Jan 10:26:09 10:30:13 53° 73° (ENE) 10:34:18 437.675
QB50P2 19 Jan 10:27:17 10:31:24 59° 74° (ENE) 10:35:33 145.880/145.840
RS-15 19 Jan 10:28:43 10:39:02 34° 256° (WSW) 10:49:03 29.354- 29.394
ZACube-1 19 Jan 10:29:13 10:30:09 11° 299° (WNW) 10:31:05 437.345
TIGRISAT 19 Jan 10:29:56 10:32:26 15° 268° (W) 10:34:55 435.000
BY70-1 19 Jan 10:41:11 10:44:30 53° 100° (E) 10:47:37 436.1900
POPSAT HIP 1 19 Jan 10:49:05 10:53:17 86° 257° (WSW) 10:57:30 437.405
HUMSAT D 19 Jan 10:49:44 10:53:31 31° 290° (WNW) 10:57:17 437.325/437.525
CUBEBUG 1 19 Jan 10:51:22 10:54:33 20° 93° (E) 10:57:42 437.445
DUCHIFAT 1 19 Jan 11:01:39 11:05:49 72° 258° (WSW) 11:09:59 145.980
AISAT 19 Jan 11:04:22 11:07:20 18° 93° (E) 11:10:19 437.250
NANOSAT C BR1 19 Jan 11:06:33 11:10:40 57° 259° (W) 11:14:48 145.865
ESTCUBE 1 19 Jan 11:19:41 11:24:15 70° 102° (ESE) 11:28:44 437.505/2401.250
JAS-2 19 Jan 11:30:27 11:34:08 19° 271° (W) 11:38:00 435.910
Oscar 19 19 Jan 11:33:17 11:37:38 28° 66° (ENE) 11:42:00 437.125/150
VELOX 1 19 Jan 11:36:59 11:41:05 37° 98° (E) 11:45:08 145.980
Gurwin Techsat 1B 19 Jan 11:38:03 11:41:27 18° 61° (ENE) 11:44:53 435.225
BUGSAT 1 19 Jan 11:41:45 11:45:50 70° 259° (W) 11:49:52 437.445
PCSat 19 Jan 11:42:01 11:44:18 13° 258° (WSW) 11:46:35 145.827
Cosmos 2491 19 Jan 11:58:00 12:05:39 32° 69° (ENE) 12:13:15 435.465 / 435.565
QB50P1 19 Jan 12:00:13 12:02:32 14° 268° (W) 12:04:51 145.935-145.965
POLYITAN 1 19 Jan 12:04:22 12:06:20 13° 269° (W) 12:08:17 437.675
QB50P2 19 Jan 12:06:01 12:07:34 12° 270° (W) 12:09:07 145.880/145.840
50 SAT 19 Jan 12:08:52 12:12:26 70° 102° (ESE) 12:15:57 437.505
YUBILEINY 19 Jan 12:10:46 12:14:12 13° 73° (ENE) 12:17:38 435.215
DX 1 19 Jan 12:13:23 12:17:32 44° 99° (E) 12:21:40 434.975-435.025
UKube-1 19 Jan 12:15:14 12:19:10 33° 98° (E) 12:23:03 .
SPROUT 19 Jan 12:15:18 12:19:34 76° 102° (ESE) 12:23:49 437.525
AO-7 19 Jan 12:16:12 12:20:48 16° 46° (NE) 12:25:25 29.400- 29.500
CUSAT 1 19 Jan 12:22:53 12:28:25 20° 61° (ENE) 12:33:50 437.405
CUBEBUG 1 19 Jan 12:26:57 12:30:56 37° 290° (WNW) 12:34:54 437.445
AISAT 19 Jan 12:39:51 12:44:00 42° 289° (WNW) 12:48:06 437.250
AIST 1 19 Jan 12:43:13 12:45:31 14° 85° (E) 12:47:50
ESTCUBE 1 19 Jan 12:58:23 13:00:26 13° 299° (WNW) 13:02:29 437.505/2401.250
DANDE 19 Jan 13:00:27 13:04:25 15° 60° (ENE) 13:08:35 436.750
Oscar 19 19 Jan 13:11:58 13:16:47 38° 262° (W) 13:21:37 437.125/150
VELOX 1 19 Jan 13:13:59 13:17:17 21° 295° (WNW) 13:20:33 145.980
Gurwin Techsat 1B 19 Jan 13:15:35 13:20:51 66° 258° (WSW) 13:26:10 435.225
ITUPSAT 1 19 Jan 13:20:03 13:21:00 11° 89° (E) 13:21:59 437.325
TISAT 1 19 Jan 13:47:43 13:51:52 71° 286° (WNW) 13:56:01 437.305
DX 1 19 Jan 13:50:28 13:53:23 18° 296° (WNW) 13:56:17 434.975-435.025
UKube-1 19 Jan 13:51:39 13:55:00 22° 294° (WNW) 13:58:20 .
ITAMSAT 1 19 Jan 13:51:44 13:56:47 58° 72° (ENE) 14:01:52 435.822/435.867
BEESAT 19 Jan 13:53:00 13:56:55 25° 95° (E) 14:00:50 436.000
SPROUT 19 Jan 13:53:55 13:54:52 11° 299° (WNW) 13:55:48 437.525
SWISSCUBE 19 Jan 13:54:20 13:58:29 28° 96° (E) 14:02:37 437.505
Cosmos 2491 19 Jan 13:54:24 14:02:56 59° 269° (W) 14:11:29 435.465 / 435.565
YUBILEINY 19 Jan 14:00:31 14:09:14 71° 93° (E) 14:18:03 435.215
CUSAT 1 19 Jan 14:03:26 14:11:29 86° 79° (E) 14:19:01 437.405
AO-7 19 Jan 14:03:46 14:12:00 66° 67° (ENE) 14:20:17 29.400- 29.500
AO-85 19 Jan 14:05:23 14:10:09 89° 106° (ESE) 14:14:34 145.980
Cosmos 2504 19 Jan 14:05:27 14:13:28 43° 88° (E) 14:21:05 435.465 / 435.565
AIST 1 19 Jan 14:18:24 14:22:39 49° 281° (WNW) 14:26:54
O/OREOS (USA 219) 19 Jan 14:29:55 14:30:28 10° 48° (NE) 14:31:02 437.305
